Theta_e
350 353 354 355 357 356 358 359 360 362 362 363 363 363 362 361 361 363 363 364 365 365 365 364 363 363 362 362 362 361 361 361 361 361 362 361 360 360 361 360 360 359 358 358 360 360 361 361 360 360 363 363 361 361 361 361 360 359 360 359 358 357 356
349 351 354 354 356 357 358 359 362 362 361 362 363 362 362 361 361 362 362 364 365 365 365 364 364 363 362 362 362 362 362 361 362 362 361 362 361 360 361 361 360 360 359 357 358 360 362 362 361 361 364 364 362 362 362 362 361 360 360 360 358 358 357
350 350 353 354 356 357 357 359 360 361 361 361 362 362 362 361 362 362 362 364 365 365 365 364 364 363 361 363 363 363 363 362 362 362 361 361 362 361 360 361 361 360 360 359 358 360 362 363 362 361 362 363 363 362 363 362 361 361 360 359 358 358 358
350 350 352 354 356 358 357 358 360 361 360 360 361 362 362 362 362 362 362 363 364 364 364 364 364 363 362 363 364 363 364 363 363 363 362 361 361 361 361 362 361 360 360 360 359 360 361 363 363 362 362 363 363 363 363 363 361 361 360 360 359 358 358
351 351 352 353 355 357 357 356 358 360 360 359 360 361 361 362 362 361 362 363 363 364 364 364 364 363 363 364 364 364 364 364 364 363 363 362 362 362 361 362 362 361 360 360 360 361 362 363 364 364 363 363 362 362 363 363 362 361 360 359 360 359 359
348 351 353 353 353 355 356 355 357 359 359 358 359 361 360 361 360 360 361 362 363 363 363 364 364 364 363 363 363 364 364 364 364 364 363 363 362 362 362 362 362 361 361 361 360 361 362 362 362 363 364 363 362 361 362 363 362 362 361 361 360 360 359
343 351 353 353 353 353 354 354 356 357 359 357 358 359 359 359 360 359 360 362 361 362 363 363 364 364 364 364 363 364 364 364 365 364 363 364 363 363 363 362 362 362 362 361 361 361 362 363 362 362 363 363 362 362 362 363 364 363 363 362 361 360 360
342 351 353 353 351 352 353 354 354 356 358 357 356 358 358 358 358 358 359 360 360 361 361 362 363 364 364 364 364 364 364 364 365 364 364 364 364 363 363 363 363 362 362 362 362 362 362 363 363 362 363 362 363 363 363 364 365 364 363 363 361 361 361
340 351 353 352 349 349 351 353 354 356 357 357 356 356 357 357 357 358 358 359 358 359 360 360 362 364 364 364 364 364 364 365 365 365 365 364 364 364 363 364 364 363 363 362 362 363 362 362 362 363 363 363 364 364 364 365 365 364 363 363 362 361 361
347 354 354 351 349 349 349 350 355 357 357 359 358 356 357 356 356 357 357 357 357 357 358 359 360 362 364 364 364 364 364 365 364 364 364 364 364 364 363 363 363 363 363 362 361 363 363 363 363 363 364 364 364 365 365 365 366 365 364 362 362 361 361
355 357 355 351 349 349 348 350 356 359 360 361 359 357 357 356 356 356 356 356 356 357 357 358 359 360 363 364 363 364 365 365 364 364 364 364 363 363 362 362 363 363 364 363 362 362 363 363 363 363 365 365 364 365 365 365 366 365 364 363 362 361 361
352 353 354 354 351 351 351 353 357 360 362 362 359 358 357 357 355 355 355 355 356 357 356 358 358 360 362 363 363 363 364 364 364 364 363 363 362 362 362 361 361 362 363 363 362 362 362 363 363 363 364 365 365 364 365 365 365 365 364 363 363 362 361
347 348 353 355 354 354 355 357 357 359 362 362 359 357 357 356 355 354 355 355 355 356 357 357 359 359 361 363 362 363 364 364 364 363 363 362 362 362 361 361 361 361 362 362 363 362 361 361 363 363 364 364 365 364 365 365 365 365 364 363 363 362 361
347 346 352 355 356 358 359 359 359 360 362 361 359 358 357 356 355 354 355 356 355 355 356 357 358 358 360 361 362 363 364 365 364 364 363 362 363 362 361 361 361 361 361 361 362 362 361 360 362 363 364 364 364 364 364 365 365 365 365 363 363 362 362
346 343 348 353 357 361 362 362 363 361 360 360 357 357 357 355 355 355 355 355 355 355 355 356 358 359 359 361 363 363 364 365 365 364 364 363 363 363 363 362 362 362 362 362 362 362 361 360 360 363 364 364 364 364 364 364 365 365 364 363 363 362 362
338 337 340 346 353 358 361 363 364 363 361 360 358 357 357 356 355 355 355 355 355 355 354 355 358 359 359 361 363 363 364 365 365 365 365 364 363 364 363 362 362 362 362 362 362 362 362 361 361 361 363 364 364 364 364 364 364 363 361 361 361 361 361
333 334 336 341 347 352 357 360 363 364 362 360 359 359 358 357 357 355 354 354 355 354 354 355 358 360 360 362 363 363 365 366 365 365 366 364 364 365 364 363 363 363 363 363 363 363 363 362 362 361 362 364 364 364 364 364 362 360 359 359 358 359 361
334 336 340 345 348 351 354 357 361 363 362 359 359 360 358 358 358 356 354 354 354 354 354 354 358 361 361 363 364 365 366 366 366 366 366 365 365 364 365 364 364 363 364 364 364 364 363 363 363 362 361 362 364 364 364 364 362 359 358 358 356 356 359
335 334 340 350 355 355 353 352 354 358 359 358 357 357 358 357 358 356 355 354 354 354 353 354 357 361 364 363 364 365 365 366 367 366 366 366 365 364 365 365 364 364 364 364 364 364 364 363 363 363 362 362 363 364 364 364 362 360 358 357 356 354 356
332 332 340 351 356 355 354 355 354 354 356 357 355 354 355 356 356 356 355 353 353 354 354 354 357 361 364 364 364 365 366 366 367 366 366 366 365 365 366 365 365 365 363 364 364 364 365 364 364 364 364 363 363 364 364 364 363 361 359 357 356 355 354
333 337 346 355 360 362 364 364 361 356 355 354 353 352 352 354 354 355 355 354 353 354 355 355 357 361 364 364 364 365 366 366 366 365 365 366 365 365 365 365 365 365 363 363 364 365 365 365 364 364 364 364 364 363 364 364 363 362 360 358 356 355 354
335 344 353 360 365 367 369 368 366 363 359 355 353 351 351 352 353 352 354 354 353 355 356 356 358 360 364 365 364 364 365 365 364 364 365 365 365 365 365 365 365 365 364 363 363 364 365 365 365 365 364 365 364 364 364 364 362 361 360 358 357 356 354
347 355 359 361 362 365 366 366 367 367 363 357 353 351 350 351 352 352 354 354 354 355 356 358 360 361 363 365 364 363 363 363 364 364 364 365 365 365 365 365 365 365 365 364 363 364 365 365 365 365 364 365 365 364 365 364 363 361 360 358 357 356 355
352 356 357 359 360 362 364 365 366 366 364 359 353 351 350 350 352 353 354 354 354 356 356 357 360 362 363 364 363 361 363 363 364 365 365 364 365 365 365 365 365 365 365 364 364 363 363 364 365 365 365 365 364 365 365 364 363 361 359 358 357 356 355
354 354 356 359 359 360 363 365 364 362 360 357 354 352 351 350 351 352 354 354 354 354 356 357 359 362 363 362 361 361 363 363 364 365 365 365 365 364 364 365 364 365 365 364 364 363 363 363 364 365 365 364 364 364 363 363 363 361 360 359 357 357 356
357 356 356 359 359 360 362 364 364 361 358 358 358 355 351 352 352 352 354 355 354 354 356 358 359 362 362 362 361 362 362 363 364 365 364 365 365 365 364 365 364 364 364 364 364 363 363 363 363 365 365 365 364 363 362 361 362 361 360 359 357 357 356
356 356 356 358 359 359 360 361 363 363 362 363 362 358 354 353 353 354 356 357 356 355 357 359 361 363 363 362 361 361 362 363 364 365 364 364 365 365 364 364 364 364 364 364 364 364 364 364 363 363 365 364 364 363 362 361 361 361 360 359 358 358 356
355 356 356 356 356 357 359 361 361 361 361 361 360 358 357 356 355 356 358 359 358 357 358 361 363 364 364 363 361 361 363 364 364 365 364 363 364 365 365 365 365 364 365 365 365 365 365 365 364 363 364 364 363 362 361 361 361 360 360 359 358 358 356
356 356 356 357 355 356 358 360 360 360 360 361 362 360 358 359 360 361 363 365 364 362 361 363 363 362 362 362 362 361 362 363 363 364 363 362 363 364 366 366 365 365 365 366 366 365 364 364 364 364 363 363 362 361 361 361 361 361 360 359 358 358 357
355 355 356 357 356 356 357 358 358 358 358 360 364 363 362 364 366 367 367 367 366 364 362 361 362 362 362 361 361 361 361 361 362 362 362 362 363 364 366 366 366 366 366 366 365 365 364 363 363 363 363 362 361 361 361 361 361 362 361 360 358 358 357
354 355 356 356 356 357 357 357 357 357 356 358 360 362 364 364 364 365 364 364 364 364 363 361 361 361 361 361 362 362 361 361 361 363 363 363 364 365 366 367 366 366 365 365 364 364 363 363 363 363 363 362 362 362 361 361 361 363 362 361 359 358 357
353 354 355 355 356 357 356 357 356 357 357 356 356 357 359 359 360 361 362 362 363 364 365 364 362 361 361 361 362 362 362 362 362 363 364 364 365 365 365 365 365 364 364 363 363 363 363 363 362 362 362 363 363 363 362 362 362 363 364 362 360 358 356
351 353 354 354 354 355 356 356 356 356 356 355 355 355 355 355 357 358 359 360 363 364 366 367 366 365 364 363 362 362 361 361 361 362 363 363 364 364 363 363 364 364 364 364 363 364 364 363 363 363 362 362 363 362 363 363 363 364 366 363 359 357 356
350 352 352 353 353 354 354 355 355 354 354 353 353 352 352 353 353 354 356 358 360 362 365 366 366 366 366 366 365 364 363 363 361 361 362 362 362 362 361 361 361 362 362 363 363 364 364 364 364 363 363 363 363 362 363 364 363 364 365 362 358 356 353
349 350 351 351 352 352 352 352 353 352 351 351 350 350 350 350 350 351 353 354 355 357 360 360 361 362 363 362 363 362 363 363 362 361 363 363 362 363 363 363 362 363 363 363 363 364 363 362 363 363 364 363 363 363 364 363 364 364 364 363 361 358 354
348 350 350 350 350 350 350 350 350 350 350 349 349 348 348 348 348 349 350 351 352 353 354 355 356 356 355 355 355 356 357 358 358 358 360 360 359 360 358 355 353 354 356 357 357 357 357 357 356 356 355 354 356 361 362 361 361 362 362 361 361 360 357
347 348 349 349 349 349 349 349 349 349 348 348 348 348 347 347 347 348 348 349 350 350 351 352 353 352 351 350 350 350 352 352 352 353 353 352 352 352 351 348 343 340 339 339 339 339 341 342 341 341 340 339 342 346 349 350 353 355 356 356 356 357 358
347 347 348 348 348 348 348 347 347 347 347 347 347 348 347 347 347 347 348 348 349 349 349 350 351 350 349 348 347 348 348 349 349 349 349 348 348 348 348 348 346 343 340 337 335 334 334 333 333 333 333 332 332 333 335 335 337 339 341 342 344 348 353
Wind_Speed
16 17 17 16 17 18 19 20 21 24 27 29 29 32 32 32 31 30 30 31 32 31 31 30 29 28 29 29 28 27 27 26 26 25 24 24 23 22 22 22 22 22 22 21 20 20 20 20 20 19 18 19 19 18 18 16 15 15 15 15 15 13 13
15 16 16 16 17 19 20 20 21 24 27 29 30 31 32 32 32 32 31 31 32 32 32 32 31 30 29 29 28 28 28 27 26 25 24 24 23 23 23 23 22 23 23 22 21 20 20 20 21 20 19 19 19 19 19 18 17 16 16 16 16 15 14
15 15 16 17 17 18 20 20 21 25 28 29 30 32 33 34 34 34 32 31 33 32 32 32 33 32 30 29 28 29 29 28 27 26 26 25 25 24 24 23 23 23 23 23 22 20 19 20 21 22 21 20 19 20 19 19 19 17 17 18 18 16 16
15 16 17 18 19 18 19 19 21 24 28 30 31 33 35 36 35 34 33 33 34 34 34 34 33 32 31 30 29 28 29 29 29 28 27 26 25 24 23 23 23 23 23 23 23 21 20 20 21 23 23 21 20 20 20 20 19 18 18 19 18 16 16
16 16 16 17 18 17 17 19 21 25 29 31 33 34 35 36 34 33 33 33 34 36 36 35 33 32 31 31 29 28 29 31 30 29 28 26 25 24 24 25 24 24 24 24 23 23 22 21 21 22 23 23 22 20 20 20 20 18 19 20 18 17 17
15 15 15 15 16 17 18 20 22 27 31 32 33 33 33 34 34 35 34 33 34 34 34 34 33 33 33 32 31 29 29 30 30 30 28 27 26 25 26 26 26 25 25 25 24 23 23 23 23 22 22 23 22 22 21 21 20 20 20 21 19 17 17
14 14 15 16 16 17 19 20 22 27 30 30 30 30 31 32 33 34 34 33 34 34 33 34 34 34 34 33 32 31 30 30 31 30 29 28 27 27 27 26 26 26 25 24 24 24 24 24 24 24 23 22 22 22 22 21 21 21 21 21 20 19 18
14 14 15 16 17 17 18 19 20 23 26 27 28 29 30 31 32 33 33 34 34 34 34 35 35 34 34 33 32 33 32 31 31 30 30 29 28 28 27 26 27 27 25 24 25 25 25 25 25 25 24 23 22 22 22 22 22 21 21 21 21 20 19
12 12 12 13 14 14 14 15 16 18 22 25 27 29 30 30 31 32 34 34 34 34 35 35 35 35 34 33 33 34 33 32 31 30 30 30 29 29 29 28 27 27 27 26 25 25 25 25 24 24 25 24 23 22 22 22 22 22 22 22 22 22 21
5 7 7 9 10 10 11 12 13 15 17 20 24 27 29 30 31 31 33 33 33 35 36 36 35 34 34 34 34 34 33 32 32 31 31 31 30 30 30 29 28 27 28 28 26 24 25 25 25 24 24 25 24 23 23 23 23 22 22 22 23 24 23
5 5 6 8 9 10 11 12 13 14 14 16 21 26 28 29 31 31 32 33 33 34 36 36 35 34 34 34 34 33 33 33 33 32 33 33 31 31 31 30 28 27 28 28 27 25 24 25 25 25 24 25 25 24 24 24 24 23 23 23 23 24 24
4 4 6 9 10 11 12 12 12 13 13 15 21 25 26 28 30 31 32 34 34 33 34 35 34 34 34 34 34 34 34 34 34 34 34 34 33 32 32 31 30 28 27 28 28 27 26 25 25 26 26 26 25 25 25 25 25 25 24 24 23 24 24
4 5 6 7 8 10 11 11 12 14 14 16 21 25 25 27 29 29 30 33 33 32 32 33 34 34 33 33 33 34 35 35 35 35 35 35 34 32 32 31 31 30 29 28 28 28 28 27 26 26 26 27 27 26 26 25 25 25 25 25 24 24 24
5 6 6 6 7 8 10 10 11 13 14 16 20 24 25 26 28 28 29 31 32 32 31 32 32 33 33 32 32 33 34 35 35 36 35 34 33 33 32 31 31 31 30 28 28 29 29 29 28 26 26 27 28 28 27 26 26 26 26 26 24 24 24
6 6 6 7 7 8 10 11 11 13 14 16 19 23 25 26 27 28 28 29 30 31 32 31 32 33 33 32 32 33 33 33 33 33 33 32 31 32 32 31 31 31 30 29 28 28 29 29 29 27 26 28 28 29 28 27 27 28 28 28 26 25 24
5 5 5 6 8 8 10 10 11 12 14 15 17 21 24 25 27 29 29 28 29 31 31 31 32 33 33 32 32 32 31 32 31 30 31 32 31 31 32 31 30 30 30 30 29 28 28 28 29 28 27 28 28 28 28 28 29 31 33 32 30 26 24
7 6 4 4 6 7 8 9 9 11 14 15 17 21 23 24 26 28 29 28 29 30 31 30 30 32 33 32 31 30 31 31 30 30 30 32 32 31 31 31 30 30 30 30 29 29 28 28 29 29 28 27 28 29 29 29 31 34 36 36 35 30 26
10 8 4 3 5 5 7 8 9 11 14 15 18 21 24 24 24 26 28 29 29 30 30 30 29 30 31 30 29 30 31 30 29 30 30 31 32 31 30 31 30 29 29 29 29 29 29 29 29 30 30 28 28 29 29 30 33 36 37 38 39 36 29
14 12 7 4 5 6 7 7 7 10 12 13 17 22 24 24 24 26 28 28 26 26 28 30 29 28 27 28 28 29 30 29 29 30 30 31 32 30 30 30 30 30 30 29 29 29 30 30 30 30 30 30 29 29 29 29 32 37 39 39 40 40 36
17 15 11 5 3 4 5 5 5 7 9 12 17 20 22 25 26 26 26 27 25 25 28 29 28 25 25 27 28 28 28 29 30 30 30 30 30 29 30 30 30 30 30 29 29 29 29 30 30 30 30 31 30 29 29 29 31 35 39 40 40 41 40
16 14 11 6 4 4 3 4 5 6 8 10 14 17 20 23 25 24 24 27 28 28 28 28 27 25 24 26 28 28 28 29 30 29 28 28 28 29 30 30 30 30 30 29 28 29 29 29 30 30 30 30 30 29 29 30 31 34 36 39 39 40 41
13 11 8 4 3 3 3 5 6 7 7 8 11 15 17 19 22 22 23 26 28 28 28 27 26 25 24 26 28 29 29 30 29 28 27 27 28 29 30 30 30 30 29 29 28 28 28 28 30 30 30 30 30 31 31 30 32 35 36 37 38 38 40
7 5 4 3 3 4 5 7 8 8 8 8 10 13 15 17 20 22 22 24 26 26 26 26 25 25 26 27 29 30 29 28 27 27 27 26 27 29 30 30 30 29 28 29 28 28 28 28 28 29 29 30 30 31 31 29 30 35 36 37 37 38 41
5 3 3 3 4 5 6 8 9 9 9 9 10 12 13 15 19 21 21 23 24 24 25 26 26 27 27 26 27 26 25 25 25 25 26 27 28 29 29 29 28 27 27 28 28 29 28 27 26 26 28 29 30 30 29 28 29 33 36 38 39 39 41
4 3 1 2 4 5 6 7 8 8 8 9 10 11 13 15 17 20 20 21 22 22 23 25 25 25 24 22 22 23 23 24 25 25 25 27 28 27 26 25 25 24 25 26 26 27 27 25 25 25 26 27 28 29 29 28 30 33 36 39 41 41 41
4 2 1 2 3 3 4 4 4 3 5 6 6 9 12 15 16 17 18 18 20 20 21 21 20 20 20 21 22 23 23 23 24 25 25 25 25 24 23 23 23 24 24 25 25 25 25 25 25 25 24 25 27 29 29 31 34 36 37 40 42 43 43
4 2 0 1 2 2 2 1 1 1 2 2 2 5 9 13 14 14 15 15 17 17 16 16 16 16 18 20 21 21 21 21 23 24 25 24 23 23 23 23 23 23 24 23 23 23 23 24 24 25 25 25 26 28 29 31 35 38 39 41 43 45 45
5 3 2 1 0 1 1 2 3 3 4 3 3 4 7 10 11 12 12 12 13 13 13 12 13 15 16 18 19 20 20 20 21 21 22 23 22 21 21 21 22 22 22 22 22 22 23 24 24 26 25 25 26 29 30 31 36 40 41 42 45 47 49
5 4 4 3 3 2 2 3 5 6 6 6 5 5 7 9 10 11 10 9 8 8 9 9 11 12 14 15 17 18 18 18 18 18 19 20 21 20 20 20 21 21 21 21 20 21 23 25 25 26 26 26 28 29 30 32 36 40 43 45 46 48 52
5 5 4 4 4 4 5 5 7 8 8 8 9 9 8 9 10 10 10 9 7 6 7 8 9 11 12 12 14 16 16 16 17 18 18 19 19 20 19 19 19 19 20 21 21 22 24 25 25 25 27 28 29 30 30 33 35 38 43 48 50 50 54
6 6 6 6 5 5 7 9 10 11 11 11 12 12 12 12 12 12 10 8 6 5 6 7 8 9 10 11 13 14 15 15 16 16 16 17 18 19 19 19 19 20 20 21 22 22 24 24 24 25 26 27 28 28 28 30 32 33 39 46 50 51 53
6 6 7 7 6 6 8 11 12 13 15 14 13 14 15 14 14 13 10 7 6 5 5 6 6 7 8 9 10 11 12 13 14 14 15 15 16 16 17 18 18 20 21 21 22 22 23 23 23 24 25 25 27 28 27 28 30 31 34 40 46 49 51
6 5 6 6 6 6 7 10 11 12 14 15 15 15 15 14 14 13 11 9 8 7 7 7 8 8 8 8 8 8 10 10 10 10 11 12 13 14 15 16 17 18 19 19 20 21 22 22 22 23 24 25 26 27 27 28 31 30 29 34 42 48 51
5 5 5 6 6 6 7 8 10 11 13 14 14 14 15 14 13 12 11 10 9 9 9 9 9 9 9 8 8 7 8 8 6 6 8 10 11 11 12 13 14 15 16 18 19 18 19 20 21 23 24 25 25 27 27 29 33 33 29 32 39 45 50
6 6 6 7 7 7 8 9 11 12 13 14 15 14 14 13 12 11 11 10 10 10 11 11 10 10 10 9 9 8 7 7 6 5 5 5 5 4 4 6 8 9 10 12 13 14 14 15 17 19 22 22 23 24 24 26 31 33 31 34 42 47 50
7 6 7 9 9 10 10 11 12 14 14 15 15 15 14 13 12 11 11 10 10 11 12 12 12 11 10 10 10 9 8 7 6 5 4 3 3 2 1 3 6 7 8 9 12 14 16 18 21 24 25 27 29 31 31 32 36 36 32 32 41 50 53
9 8 10 11 12 13 13 14 15 16 16 16 16 17 16 15 14 13 13 12 11 12 12 11 11 11 12 12 12 11 10 10 9 8 7 6 5 4 3 3 1 1 2 4 6 8 12 15 18 20 20 22 27 34 38 40 45 48 46 42 42 47 54
11 12 12 14 15 15 15 15 16 17 17 16 17 18 18 18 17 16 16 15 14 14 14 13 13 13 14 13 13 12 12 11 10 9 8 7 6 4 3 3 3 4 4 5 7 7 6 6 7 9 11 12 16 24 29 32 36 42 47 49 48 49 54
Wind_Direction
200 200 201 199 197 198 195 191 188 188 188 188 189 189 189 190 189 189 189 189 191 192 193 194 196 198 201 204 205 205 205 206 207 207 207 209 210 209 209 209 208 210 212 214 216 217 216 215 213 213 212 211 212 214 212 210 215 221 220 215 214 214 214
200 201 200 199 199 200 198 193 189 188 188 188 188 188 189 190 189 189 189 188 190 191 192 194 196 198 201 204 205 205 206 207 207 206 206 208 209 209 210 210 209 211 214 216 217 217 215 213 212 212 211 211 213 213 214 212 212 217 218 215 216 216 215
200 201 199 199 200 200 197 194 191 190 189 188 187 188 189 190 190 189 188 187 189 190 192 194 197 199 201 203 204 204 205 206 207 207 207 208 209 209 209 210 211 213 215 216 217 216 214 212 213 214 213 212 213 213 214 215 214 216 218 217 218 217 214
203 201 199 200 200 199 196 194 194 193 191 190 189 189 189 188 189 189 188 187 187 189 192 194 196 197 198 200 202 202 203 205 207 208 209 210 209 209 208 210 211 213 214 215 215 215 214 211 212 215 215 213 212 212 213 215 214 214 217 217 217 216 216
206 204 201 201 201 198 196 196 196 195 194 193 191 190 189 187 187 188 190 190 189 191 192 193 193 194 196 199 201 203 204 205 207 208 209 210 209 208 209 211 211 212 213 214 214 213 212 211 210 212 213 213 213 213 212 213 212 211 212 215 215 213 215
205 201 202 202 201 200 197 198 198 198 198 196 192 190 189 188 187 189 190 190 192 193 192 191 192 193 196 199 201 203 204 205 206 208 209 209 207 208 210 212 212 212 213 212 212 212 211 212 212 211 212 214 214 214 213 212 211 209 209 212 212 209 212
204 196 200 202 202 201 199 200 201 199 200 198 194 191 190 190 189 190 190 191 193 194 191 192 193 193 196 198 200 201 203 204 206 207 209 208 207 209 211 212 212 213 213 212 211 211 211 212 213 212 213 214 214 213 213 211 209 207 206 208 209 207 209
207 196 199 201 202 202 201 201 202 200 198 197 196 194 192 192 192 191 191 193 194 193 193 194 194 194 195 196 198 201 202 203 205 206 208 208 207 209 211 211 212 213 212 212 211 210 210 211 213 213 214 214 214 213 212 210 208 207 204 206 207 205 206
210 198 201 204 205 206 204 202 201 200 197 196 197 196 193 193 193 194 194 194 194 194 195 195 195 195 195 195 198 200 201 202 203 204 206 206 207 209 211 211 211 211 211 211 212 211 211 212 212 213 213 214 214 212 212 211 210 209 206 206 207 205 205
190 174 189 202 208 208 207 203 197 199 198 195 196 196 194 194 194 195 196 195 195 196 196 195 196 195 194 195 198 199 199 200 202 203 205 207 208 209 211 212 211 211 211 212 213 211 211 213 213 212 211 212 212 212 212 211 210 210 209 208 209 207 207
141 155 179 194 201 202 204 202 196 198 198 192 193 195 195 195 195 195 195 196 197 197 196 195 195 195 195 197 199 198 198 199 201 203 205 207 209 211 212 213 212 212 211 213 214 213 211 212 212 211 210 211 212 212 212 212 211 212 211 210 210 209 209
144 186 205 203 201 199 201 203 200 196 194 192 193 195 195 195 196 195 194 195 197 197 196 195 195 194 195 197 198 198 199 200 201 203 206 208 210 211 213 213 213 213 212 213 213 213 213 212 212 211 210 212 213 213 213 213 212 212 213 212 211 210 209
188 214 219 206 199 199 201 204 203 197 193 192 194 195 195 195 197 197 196 196 197 196 195 195 195 195 196 197 197 198 199 200 201 204 207 208 209 211 212 213 213 213 213 213 214 214 214 214 213 211 211 212 214 214 215 214 213 213 214 213 212 210 209
196 212 209 196 197 203 206 208 207 201 197 196 196 197 198 198 199 199 200 198 197 195 195 194 194 195 196 197 197 197 198 199 201 203 205 206 207 208 210 212 212 212 213 213 213 214 215 215 214 212 211 212 215 216 215 215 214 213 212 214 213 210 209
194 191 183 185 196 204 211 214 208 202 201 200 201 200 200 201 200 199 201 200 197 197 196 193 192 195 196 197 197 197 196 197 200 202 203 204 204 206 208 210 210 211 212 212 213 214 215 215 214 212 210 211 214 215 215 215 214 213 212 211 211 211 211
211 198 190 193 196 203 216 221 210 200 198 198 202 202 201 201 200 199 200 200 198 198 196 193 192 193 195 197 197 194 193 195 198 199 200 201 202 204 206 208 209 210 211 211 213 214 214 214 214 213 211 210 211 212 213 214 216 218 218 214 211 209 210
248 251 248 216 208 214 224 229 217 201 197 198 200 201 201 201 200 200 200 200 199 199 196 194 193 192 195 197 194 190 190 193 196 197 198 200 201 203 205 206 208 209 209 210 211 212 213 213 214 215 214 212 211 212 213 214 219 222 221 220 216 211 208
256 262 261 210 211 232 237 237 226 209 203 202 200 201 201 200 198 199 201 200 199 198 196 195 195 194 195 194 189 188 190 193 194 195 197 199 200 202 203 205 207 208 208 209 210 211 212 213 214 215 215 214 214 214 214 217 222 224 222 222 221 216 210
259 269 274 221 200 227 240 242 235 222 215 209 206 206 203 198 197 200 201 199 198 196 196 198 198 196 193 191 188 189 192 193 194 196 198 199 199 201 202 204 206 208 208 209 210 211 213 214 215 215 215 216 216 216 217 219 223 225 224 223 223 220 216
269 279 286 275 240 242 244 244 246 239 231 222 216 213 206 201 201 201 198 196 196 196 197 199 199 197 194 192 192 193 194 194 195 198 199 199 199 200 203 205 207 208 210 211 211 212 213 215 216 216 216 217 217 218 220 220 222 225 225 224 224 223 220
271 278 285 285 271 262 251 250 253 248 241 232 222 216 210 205 203 199 195 193 194 195 197 197 198 197 195 194 195 196 196 197 198 199 199 199 199 201 205 208 209 210 211 213 213 214 215 216 217 218 218 218 218 219 222 222 222 224 226 226 224 223 222
266 270 275 281 276 270 270 270 268 260 252 241 225 216 213 207 200 196 194 192 193 194 194 194 195 196 195 195 197 199 199 200 200 200 200 199 200 203 207 209 210 210 210 213 215 216 217 217 218 219 219 219 219 221 223 224 223 224 225 225 224 222 222
265 270 271 285 291 285 281 277 272 266 256 242 229 219 213 204 198 195 193 192 192 193 192 192 194 196 196 197 199 200 201 201 201 200 200 200 201 205 208 209 210 209 209 211 214 216 217 218 220 220 220 220 220 222 224 225 225 224 225 225 223 221 220
234 246 261 286 291 286 284 279 270 263 251 237 228 217 208 201 196 194 194 193 194 194 193 196 198 198 199 199 200 200 199 199 200 199 200 201 204 207 209 210 211 209 209 211 214 218 220 220 221 221 221 222 222 223 225 228 229 227 225 225 224 220 217
195 213 238 285 290 290 294 292 279 260 238 224 219 211 204 199 194 193 194 193 194 195 197 200 201 200 200 199 197 197 198 198 200 200 201 204 208 211 213 213 213 212 212 214 217 221 222 222 224 224 223 224 225 225 227 231 233 230 225 223 221 219 216
163 170 198 262 281 291 296 304 295 251 212 202 203 199 197 194 191 193 193 191 195 199 201 203 201 197 197 195 194 196 198 199 200 202 205 208 210 213 214 213 214 215 215 217 220 223 224 224 225 227 226 226 227 225 226 231 234 233 228 223 221 219 215
132 133 298 312 310 293 282 348 46 82 103 121 160 181 190 189 188 192 191 189 194 200 200 199 195 190 190 191 193 196 198 199 202 203 206 208 209 211 214 214 216 216 216 219 221 222 223 223 224 227 227 226 227 227 227 230 234 234 232 226 222 219 214
132 136 136 112 302 255 201 89 82 78 68 73 119 160 178 180 180 185 184 184 192 198 195 191 187 184 184 187 192 197 198 200 203 203 206 209 209 211 213 213 215 215 216 219 220 222 226 227 228 231 231 229 231 232 231 231 234 234 233 228 222 219 214
130 134 135 128 128 145 132 96 79 71 60 58 84 126 155 164 166 169 164 155 161 169 169 171 174 177 183 188 193 198 201 204 205 205 208 211 211 211 213 213 214 215 216 219 222 227 233 235 235 238 240 239 240 239 237 236 236 235 233 229 225 221 218
143 147 133 114 111 120 122 109 92 82 71 64 71 92 119 132 130 123 115 107 108 127 145 157 163 169 178 187 193 199 204 208 209 209 211 211 210 210 213 213 214 216 218 220 224 230 236 238 238 241 244 246 246 244 241 240 239 237 235 232 228 224 221
151 146 130 117 113 115 115 109 100 95 89 79 72 76 87 99 102 97 92 94 104 122 142 158 168 174 181 187 190 195 200 204 207 209 210 209 208 209 213 215 217 221 225 227 229 233 237 240 241 242 245 247 248 247 246 245 243 241 238 234 230 227 224
149 145 137 127 119 116 113 109 103 97 93 87 81 79 80 85 91 94 94 99 110 122 135 148 161 170 179 185 187 191 195 198 202 205 207 208 209 212 218 222 224 227 230 232 233 236 239 242 244 245 247 248 249 251 251 249 247 244 240 234 228 226 225
148 141 133 127 124 121 116 108 101 96 92 88 85 85 86 87 90 94 98 101 106 117 128 138 145 149 157 167 172 177 186 191 196 200 202 205 212 218 225 229 231 233 234 236 238 240 241 242 244 248 250 252 254 254 253 250 249 248 240 228 223 223 222
143 138 135 133 129 121 109 102 99 96 92 90 88 87 89 90 91 96 101 103 106 111 115 123 131 133 137 143 144 151 163 169 174 185 193 201 211 219 225 230 233 235 235 237 240 243 246 247 247 249 252 254 256 257 256 253 251 249 239 225 221 221 219
135 136 132 123 115 109 105 103 101 97 94 94 94 92 91 90 91 96 101 104 110 115 115 116 119 118 119 121 119 123 133 139 144 161 178 189 200 219 246 257 257 255 251 248 247 251 261 268 269 266 266 267 266 263 261 259 257 255 249 237 230 225 221
124 123 120 117 113 110 107 105 103 100 98 97 96 95 93 91 90 92 97 104 111 116 116 116 114 110 105 101 99 102 109 112 114 123 133 138 145 154 235 272 269 270 272 270 268 267 268 274 277 276 277 281 278 272 270 270 269 269 268 256 242 232 227
117 115 115 115 112 109 107 105 102 100 98 97 97 96 94 92 91 90 93 98 106 113 113 108 101 95 89 84 82 84 89 93 93 96 98 96 97 103 105 107 105 6 317 297 288 279 273 274 278 281 287 291 286 280 279 279 277 276 276 274 262 244 232
104 106 109 110 110 109 108 106 102 100 97 94 94 94 92 91 91 91 93 95 99 105 105 99 94 90 87 85 83 80 82 85 84 85 87 84 78 77 78 78 76 67 42 17 15 18 10 344 321 312 310 307 301 296 293 291 288 284 280 277 272 259 243